TimePDT,TemperatureF,Dew PointF,Humidity,Sea Level PressureIn,VisibilityMPH,Wind Direction,Wind SpeedMPH,Gust SpeedMPH,PrecipitationIn,Events,Conditions,WindDirDegrees,DateUTC
12:54 AM,55.9,53.1,90,30.15,10.0,SSE,3.5,-,N/A,,Clear,160,2013-07-19 07:54:00
1:54 AM,54.0,52.0,93,30.16,10.0,Calm,Calm,-,N/A,,Clear,0,2013-07-19 08:54:00
2:54 AM,54.0,51.1,90,30.16,10.0,Calm,Calm,-,N/A,,Clear,0,2013-07-19 09:54:00
3:54 AM,52.0,50.0,93,30.16,10.0,Calm,Calm,-,N/A,,Clear,0,2013-07-19 10:54:00
4:54 AM,51.1,50.0,96,30.17,10.0,Calm,Calm,-,N/A,,Clear,0,2013-07-19 11:54:00
5:42 AM,50.0,48.9,96,30.18,9.0,Calm,Calm,-,N/A,,Partly Cloudy,0,2013-07-19 12:42:00
5:54 AM,48.9,48.0,97,30.18,8.0,Calm,Calm,-,N/A,,Mostly Cloudy,0,2013-07-19 12:54:00
6:54 AM,52.0,51.1,97,30.18,7.0,Calm,Calm,-,N/A,,Overcast,0,2013-07-19 13:54:00
7:05 AM,52.0,51.1,97,30.18,5.0,SSW,3.5,-,N/A,,Overcast,200,2013-07-19 14:05:00
7:54 AM,54.0,52.0,93,30.19,3.0,Calm,Calm,-,N/A,,Overcast,0,2013-07-19 14:54:00
8:54 AM,54.0,52.0,93,30.19,8.0,Calm,Calm,-,N/A,,Overcast,0,2013-07-19 15:54:00
9:15 AM,55.0,52.0,89,30.19,9.0,Calm,Calm,-,N/A,,Overcast,0,2013-07-19 16:15:00
9:54 AM,57.0,53.1,87,30.19,10.0,Calm,Calm,-,N/A,,Overcast,0,2013-07-19 16:54:00
10:54 AM,60.1,54.0,80,30.18,10.0,Calm,Calm,-,N/A,,Overcast,0,2013-07-19 17:54:00
11:25 AM,62.1,54.0,75,30.17,10.0,ESE,4.6,-,N/A,,Scattered Clouds,110,2013-07-19 18:25:00
11:27 AM,63.0,54.0,72,30.17,10.0,Calm,Calm,-,N/A,,Partly Cloudy,0,2013-07-19 18:27:00
11:54 AM,66.0,54.0,65,30.17,10.0,Variable,3.5,-,N/A,,Partly Cloudy,0,2013-07-19 18:54:00
12:54 PM,70.0,55.9,61,30.15,10.0,Variable,6.9,-,N/A,,Clear,0,2013-07-19 19:54:00
1:54 PM,73.9,57.0,55,30.13,10.0,NNE,9.2,16.1,N/A,,Clear,30,2013-07-19 20:54:00
2:54 PM,77.0,57.9,52,30.11,10.0,NNE,5.8,-,N/A,,Clear,30,2013-07-19 21:54:00
3:54 PM,79.0,57.9,48,30.09,10.0,NE,8.1,-,N/A,,Clear,40,2013-07-19 22:54:00
4:54 PM,80.1,57.9,47,30.07,10.0,North,9.2,-,N/A,,Clear,10,2013-07-19 23:54:00
5:54 PM,80.1,57.9,47,30.06,10.0,NE,5.8,-,N/A,,Clear,40,2013-07-20 00:54:00
6:54 PM,79.0,60.1,52,30.05,10.0,NNW,8.1,-,N/A,,Clear,340,2013-07-20 01:54:00
7:54 PM,75.9,57.9,54,30.05,10.0,North,5.8,-,N/A,,Clear,360,2013-07-20 02:54:00
8:54 PM,70.0,57.0,63,30.06,10.0,NNE,4.6,-,N/A,,Clear,30,2013-07-20 03:54:00
9:54 PM,64.0,55.9,75,30.08,10.0,SW,4.6,-,N/A,,Clear,220,2013-07-20 04:54:00
10:54 PM,57.9,54.0,87,30.08,10.0,SSE,5.8,-,N/A,,Clear,150,2013-07-20 05:54:00
11:54 PM,55.0,52.0,89,30.09,10.0,SSE,3.5,-,N/A,,Clear,160,2013-07-20 06:54:00